Regional Weather Roundup
Issued by NWS Green Bay, WI

Home | Current Version | Previous Version | Graphics & Text | Print | Product List | Glossary Off
Versions: 1 2 3 4 5 6 7 8 9 10 11 12 13 14 15 16 17 18 19 20 21 22 23 24 25 26 27 28 29 30 31 32 33 34 35 36 37 38 39 40 41 42 43 44 45 46 47 48 49 50

000
ASUS43 KGRB 290359
RWRGRB

NORTH-CENTRAL AND NORTHEAST WISCONSIN REGIONAL WEATHER ROUNDUP
NATIONAL WEATHER SERVICE GREEN BAY WI
1100 PM CDT MON JUL 28 2014

WIZ005-009-010>012-018-019-290500-
NORTH CENTRAL WISCONSIN

CITY           SKY/WX    TMP DP  RH WIND       PRES   REMARKS
IRONWOOD       NOT AVBL
MANITOWISH WTR NOT AVBL
ARBOR VITAE    NOT AVBL
EAGLE RIVER    NOT AVBL
LAND O LAKES   NOT AVBL
RHINELANDER    MOCLDY    57  55  93 W7        30.08F
PHILLIPS       LGT RAIN  57  55  94 CALM      30.11R
ANTIGO         NOT AVBL
TOMAHAWK       NOT AVBL
MERRILL        NOT AVBL
$$

WIZ013-073-290500-
NORTHEAST WISCONSIN

CITY           SKY/WX    TMP DP  RH WIND       PRES   REMARKS
IRON MOUNTAIN  CLEAR     61  53  75 NW6       30.01F
MARINETTE      MOCLDY    64  54  68 CALM      30.00F
$$

WIZ017-030-035>037-045-290500-
CENTRAL WISCONSIN

CITY           SKY/WX    TMP DP  RH WIND       PRES   REMARKS
MEDFORD        NOT AVBL
WAUSAU         CLOUDY    63  56  78 NW8       30.06F
MOSINEE        CLOUDY    61  55  82 W6        30.08F
MARSHFIELD     PTCLDY    61  54  77 NW7       30.08F
WISC RAPIDS    CLEAR     62  55  77 W5        30.09F
STEVENS POINT  NOT AVBL
WAUPACA        CLOUDY    67  53  60 NW5       30.05F
SHAWANO        CLOUDY    66  55  68 W5        30.04F
CLINTONVILLE   CLOUDY    63  54  72 W5        30.04F
$$

WIZ038-039-048-051-290500-
FOX VALLEY

CITY           SKY/WX    TMP DP  RH WIND       PRES   REMARKS
NWS GREEN BAY  CLOUDY    62  56  80 W6        30.03F
APPLETON       MOCLDY    61  54  77 W7        30.05S
OSHKOSH        CLOUDY    64  54  69 W5        30.04F
FOND DU LAC    CLOUDY    63  53  70 W5        30.05F
$$

WIZ022-050-052-290500-
EAST CENTRAL WISCONSIN

CITY           SKY/WX    TMP DP  RH WIND       PRES   REMARKS
STURGEON BAY   CLOUDY    57  52  82 SW3       30.02S
MANITOWOC      NOT AVBL
SHEBOYGAN      MOCLDY    55  53  93 SW3       30.04F
$$

LMZ563-521-522-541>543-290500-
LAKESHORE

STATION/POSITION TIME  TEMP    WIND        PRES    VSBY  WAVE
                       AIR SEA DIR/SP/G                  HT/PER
                 (UTC) (F)     (DEG/KT/KT) (MB)    (MI)  (FT/S)
SHEBOYGAN LKSHOR 0300   60     180/  6/  7 1017.8S
KEWAUNEE LKSHORE 0300   55     190/  1/  2 1017.3F
ALGOMA MARINA    0300             CALM       N/A
NORTHPORT PIER   0300   63     230/  3/  7 1015.9S
N MID LAKE BUOY  0300   56 54  230/  8/  8 1015.4F         1/ 3
S GREEN BAY BUOY 0300   67 67  270/  8     1017.4F
SISTER BAY LKSHO 0300   64     190/  5/  6   N/A
CHAMBERS ISLAND  0300   63     190/  3/  5 1016.3S
MENOMINEE LKSHOR 0300   67     250/  6/  9 1016.8F
$$



USA.gov is the U.S. government's official web portal to all federal, state and local government web resources and services.